Notices

What's New in latest Release from April 7th, 2021:

- Updated Glossary, including Speed of Maximum Gust, and Total Hourly Precipitation

- Updated national and regional climate services offices contacts and prices information

- Addition of station inventory lists for 1981-2010, 1971-2000, and 1961-1990 Normals.

If you haven't already, please take our survey and provide feedback about our website: https://eccc.sondage-survey.ca/f/LanguageSelection.aspx?s=442ca660-fcf1-47c0-95a9-59707d6fd709

Hourly Data Report for November 02, 2020

MUSKOKA
ONTARIO
Current Station Operator: NAVCAN

44°58'29.000" N
79°18'12.000" W
281.90 m
6115529
71532
YQA

Download Data

Hourly Data (November 2020)
Hourly Data Report for November 2, 2020
TIME
LST
Temp Definition
°C
Dew Point Definition
°C
Rel Hum Definition
%
Precip. Amount Definition
mm

Wind Dir Definition
10's deg

Wind Spd Definition
km/h
Visibility Definition
km
Stn Press Definition
kPa
Hmdx Definition


Wind Chill Definition


Weather Definition


00:00 -2.4 -4.7 84 LegendMM 31 37 8.1 97.66   -10 Snow
01:00 -2.8 -5.0 85 LegendMM 32 28 9.7 97.76   -10 Snow
02:00 -3.5 -7.1 76 LegendMM 33 39 16.1 97.90   -12 LegendNANA
03:00 -4.1 -8.6 71 LegendMM 32 26 16.1 98.02   -11 Snow
04:00 -4.5 -8.8 72 LegendMM 32 26 16.1 98.08   -12 Snow
05:00 -5.2 -10.1 69 LegendMM 32 28 16.1 98.13   -13 LegendNANA
06:00 -5.0 -9.6 71 LegendMM 32 30 16.1 98.17   -13 Snow
07:00 -5.8 -10.8 68 LegendMM 32 30 16.1 98.23   -14 LegendNANA
08:00 -5.7 -9.3 76 LegendMM 31 21 9.7 98.27   -13 Snow
09:00 -5.1 -10.1 68 LegendMM 33 24 16.1 98.23   -12 LegendNANA
10:00 -4.0 -8.7 70 LegendMM 32 22 16.1 98.15   -11 LegendNANA
11:00 -2.1 -6.9 70 LegendMM 29 18 16.1 98.06   -8 LegendNANA
12:00 -1.2 -6.6 67 LegendMM 31 24 16.1 97.94   -7 LegendNANA
13:00 -0.3 -5.8 67 LegendMM 30 9 16.1 97.82   -3 LegendNANA
14:00 0.1 -4.4 72 LegendMM 23 13 16.1 97.63     Snow
15:00 0.1 -0.9 93 LegendMM 24 17 2.0 97.51     Snow
16:00 0.3 -0.7 93 LegendMM 21 18 16.1 97.37     Snow
17:00 1.0 -0.8 88 LegendMM 22 17 9.7 97.26     Snow
18:00 2.0 -1.4 78 LegendMM 24 15 16.1 97.11     Rain
19:00 2.9 -1.0 75 LegendMM 24 15 16.1 97.00     LegendNANA
20:00 5.4 0.2 69 LegendMM 28 28 16.1 96.92     LegendNANA
21:00 5.7 0.9 71 LegendMM 30 30 16.1 97.03     LegendNANA
22:00 5.2 0.0 69 LegendMM 30 30 16.1 97.08     LegendNANA
23:00 5.7 -0.3 65 LegendMM 30 30 16.1 97.10     LegendNANA

Notes on Data Quality.

Legend

  • E = Estimated
  • M = Missing
  • NA = Not Available*
  • [empty] = Indicates an unobserved value
Date modified: